SL-14 DEB, 45655

Orbit data source: Space-Track

SL-14 DEB, 45655 is space debris in LEO originally from a launch on Thu, 15 Aug 1991 UTC launched from the Plesetsk Missile And Space Complex (PKMTR). Debris objects in space refer to the collection of defunct objects orbiting the Earth. Examples of debris include non-operational satellites, rocket bodies, and fragments generated from explosions, collisions, or faulty payload assembly.

Loading next visibility...
Identifier
45655, 1991-056CZ
Orbit
LEO
Country
Flag of CISCIS
Related business
Manufacturer
Unknown
Mission
Spacecraft
Bus & Motor
Unknown
Mass
Unknown
Launch date (UTC)
1991-08-15 (35 years ago)
Launch vehicle
Unknown
Launch site
Plesetsk Missile And Space Complex (PKMTR)
Object type
Payload
Rocket body
Debris
Shape & HBR
Unknown shape, 0.1 m
Radar Cross Section
Small (<0.1 m²)

Expand to show TLE details & history
Last TLE update: 2 days ago

TLE from 2 days ago
0 SL-14 DEB
1 45655U 91056CZ  26252.96665433  .00000648  00000-0  20685-2 0  9996
2 45655  82.5389 129.8574 0103448 233.2430 125.9152 12.99940299311852
Epoch: 2026-09-09T23:11Z
TLE epoch observation values (Epoch: 2026-09-09T23:11:58.934Z)
Latitude
0.00001°
Longitude
152.85071°
Altitude
1,312.01 km
Speed
7.179 km/s
True Right ascension
08h 39m 25s
True Declination
0° 00' 00"
Sunlit
Object was in daylight at epoch
Visualization orbit readout
Latitude
Unknown
Longitude
Unknown
Altitude
Unknown
Speed
Unknown
Apparent Right ascension
Unknown
Apparent Declination
Unknown
Sunlit
N/A
Visualization observer readout
Local Sidereal Time
15:19:21
Azimuth
Unknown
Elevation
Unknown
Doppler factor
Unknown
Orbital elements
Apogee altitude
1,338.604 km
Perigee altitude
1,180.582 km
Semi-major axis
7,637.73 km
Eccentricity
0.01034
Inclination
82.5389°
RAAN
129.8574°
Arg. of periapsis
233.243°
True anomaly
126.86799°
Mean anomaly
125.9152°
Eccentric anomaly
126.39232°
Mean motion
3.2516 °/min
Orbital period
110.71 mins
BSTAR
0.0020685
Loading maneuver chart data...
Computing Atmospheric mass density...
Loading historical data...
Loading historical data...
Loading historical data...
Loading historical data...
Loading historical data...
Loading historical data...
Loading historical data...

Documentation

Showing up to 5 results
|